Tracking 35274 objects as of 12-Sep-2026
HD Live streaming from Space Station
objects crossing your sky now

DELTA 1 DEB

Track DELTA 1 DEB now!
10-day predictions


NORAD ID: 42085
Int'l Code: 1968-114M
Launch date: December 15, 1968
Source: United States (US)
Launch site: AIR FORCE WESTERN TEST RANGE (AFWTR)

Note: This is SATELLITE DEBRIS
Your satellite tracking list
Your tracking list is empty




NASA's NSSDC Master Catalog

Two Line Element Set (TLE):
1 42085U 68114M   26251.39489764  .00000058  00000-0  40734-3 0  9999
2 42085 100.9117 310.6322 0115976 187.5242 236.2794 12.84487125599834
Source of the keplerian elements: AFSPC